Вернуться в каталог

CTC-1B

АктивенСвязьSSO
NORAD 66681·PAYLOAD·🇺🇸 United States
Это название спутника еще не подтверждено официальными источниками.

Запущен Nov 28, 2025 с Vandenberg Space Force Base

Loading…

Ближайшие Пролёты (ближайшие 24 часа)

TLE

СвежийSource: Space-Track

Эпоха: Sep 14, 2026, 10:27 UTC

1 66681U 25276R   26257.43576168  .00012795  00000-0  49244-3 0  9991
2 66681  97.4039 330.4680 0005903  71.3606 288.8273 15.26496997 44065

Отслеживайте CTC-1B в реальном времени с AllMySat

Download on the App Store